Michigan City, IN

6:54 AM CDT on March 27, 2017 (GMT -0500)
Michigan City Municipal

Weather History for KMGC - October, 2012

Change the Weather History Date:

Sunday, October 28, 2012

  Actual Average (KSBN) Record (KSBN)
Temperature  
Mean Temperature 40 °F -  
Max Temperature 46 °F 58 °F 79 °F (1999)
Min Temperature 35 °F 40 °F 21 °F (1906)
Degree Days  
Heating Degree Days 24    
Moisture  
Dew Point 29 °F    
Average Humidity 63    
Maximum Humidity 87    
Minimum Humidity 42    
Precipitation  
Precipitation 0.00 in - - ()
Sea Level Pressure  
Sea Level Pressure 30.23 in    
Wind  
Wind Speed 7 mph ()    
Max Wind Speed 15 mph    
Max Gust Speed 25 mph    
Visibility 10.0 miles    
Events      
Averages and records for this station are not official NWS values.
T = Trace of Precipitation, MM = Missing Value Source: Averaged Metar Reports

Daily Weather History Graph

Daily Weather History Graph

Search for Another Location

Airport or City:

Trip Planner

Search our weather history database for the weather conditions in past years. The results will help you decide how hot, cold, wet, or windy it might be!

Date:

Astronomy

Oct. 28, 2012 Rise Set
Actual Time 7:15 AM CDT 5:46 PM CDT
Civil Twilight 6:46 AM CDT 6:14 PM CDT
Nautical Twilight 6:13 AM CDT 6:47 PM CDT
Astronomical Twilight 5:41 AM CDT 7:19 PM CDT
Moon 5:03 PM CDT (10/28) 6:07 AM CDT (10/28)
Length of Visible Light 11h 28m
Length of Day
10h 31m
Waxing Gibbous, 99% of the Moon is Illuminated
Oct 28
Waxing Gibbous
Oct 29
Full
Nov 6
Last Quarter
Nov 13
New
Nov 20
First Quarter

Hourly Weather History & Observations

Time (CDT) Temp. Windchill Dew Point Humidity Pressure Visibility Wind Dir Wind Speed Gust Speed Precip Events Conditions
12:15 AM 39.2 °F 37.0 °F 32.0 °F 75% 30.24 in 10.0 mi ENE 3.5 mph - N/A   Clear
12:35 AM 39.2 °F 35.9 °F 32.0 °F 75% 30.24 in 10.0 mi NE 4.6 mph - N/A   Clear
12:55 AM 39.2 °F 35.0 °F 32.0 °F 75% 30.24 in 10.0 mi NNE 5.8 mph - N/A   Clear
1:15 AM 39.2 °F 35.0 °F 32.0 °F 75% 30.24 in 10.0 mi NE 5.8 mph - N/A   Clear
1:55 AM 39.2 °F 35.0 °F 32.0 °F 75% 30.24 in 10.0 mi NE 5.8 mph - N/A   Clear
2:15 AM 37.4 °F 32.8 °F 32.0 °F 81% 30.24 in 10.0 mi NE 5.8 mph - N/A   Clear
2:35 AM 37.4 °F 33.8 °F 32.0 °F 81% 30.24 in 10.0 mi NE 4.6 mph - N/A   Clear
2:55 AM 37.4 °F 33.8 °F 32.0 °F 81% 30.24 in 10.0 mi NE 4.6 mph - N/A   Clear
3:15 AM 35.6 °F 32.8 °F 32.0 °F 87% 30.23 in 10.0 mi NE 3.5 mph - N/A   Clear
3:35 AM 35.6 °F 30.7 °F 32.0 °F 87% 30.24 in 10.0 mi NE 5.8 mph - N/A   Clear
3:55 AM 35.6 °F 30.7 °F 32.0 °F 87% 30.24 in 10.0 mi NNE 5.8 mph - N/A   Clear
4:15 AM 35.6 °F 31.7 °F 32.0 °F 87% 30.25 in 10.0 mi NE 4.6 mph - N/A   Mostly Cloudy
4:35 AM 35.6 °F 31.7 °F 32.0 °F 87% 30.25 in 10.0 mi NE 4.6 mph - N/A   Overcast
4:55 AM 35.6 °F 31.7 °F 32.0 °F 87% 30.25 in 10.0 mi NE 4.6 mph - N/A   Overcast
5:15 AM 35.6 °F 31.7 °F 32.0 °F 87% 30.25 in 10.0 mi ENE 4.6 mph - N/A   Overcast
5:35 AM 35.6 °F 32.8 °F 32.0 °F 87% 30.26 in 10.0 mi NE 3.5 mph - N/A   Overcast
5:55 AM 35.6 °F 31.7 °F 32.0 °F 87% 30.25 in 10.0 mi ENE 4.6 mph - N/A   Overcast
6:15 AM 35.6 °F 31.7 °F 30.2 °F 81% 30.25 in 10.0 mi NE 4.6 mph - N/A   Overcast
6:35 AM 37.4 °F - 30.2 °F 75% 30.26 in 10.0 mi Calm Calm - N/A   Overcast
6:55 AM 37.4 °F 31.4 °F 30.2 °F 75% 30.26 in 10.0 mi NE 8.1 mph - N/A   Overcast
7:15 AM 35.6 °F 32.8 °F 30.2 °F 81% 30.26 in 10.0 mi NE 3.5 mph - N/A   Overcast
7:35 AM 35.6 °F 31.7 °F 28.4 °F 75% 30.27 in 10.0 mi NE 4.6 mph - N/A   Overcast
7:55 AM 37.4 °F 32.8 °F 28.4 °F 70% 30.27 in 10.0 mi NE 5.8 mph - N/A   Overcast
8:15 AM 37.4 °F 32.8 °F 28.4 °F 70% 30.27 in 10.0 mi NE 5.8 mph - N/A   Overcast
8:55 AM 41.0 °F 35.8 °F 26.6 °F 57% 30.27 in 10.0 mi NNE 8.1 mph - N/A   Mostly Cloudy
9:15 AM 41.0 °F 35.2 °F 26.6 °F 57% 30.26 in 10.0 mi NNE 9.2 mph - N/A   Scattered Clouds
9:55 AM 42.8 °F 37.0 °F 26.6 °F 53% 30.25 in 10.0 mi NE 10.4 mph 17.3 mph N/A   Mostly Cloudy
10:15 AM 42.8 °F 37.0 °F 28.4 °F 57% 30.25 in 10.0 mi NE 10.4 mph 17.3 mph N/A   Mostly Cloudy
10:35 AM 44.6 °F 38.8 °F 28.4 °F 53% 30.25 in 10.0 mi NNE 11.5 mph 20.7 mph N/A   Overcast
10:55 AM 44.6 °F 37.8 °F 28.4 °F 53% 30.25 in 10.0 mi NE 15.0 mph 21.9 mph N/A   Overcast
11:15 AM 44.6 °F 38.1 °F 26.6 °F 49% 30.25 in 10.0 mi North 13.8 mph 24.2 mph N/A   Overcast
11:35 AM 44.6 °F 37.8 °F 24.8 °F 46% 30.25 in 10.0 mi NNE 15.0 mph 25.3 mph N/A   Mostly Cloudy
11:55 AM 44.6 °F 38.4 °F 24.8 °F 46% 30.25 in 10.0 mi NNE 12.7 mph 21.9 mph N/A   Scattered Clouds
12:15 PM 46.4 °F 42.4 °F 26.6 °F 46% 30.24 in 10.0 mi NNE 8.1 mph 19.6 mph N/A   Clear
12:35 PM 46.4 °F 41.9 °F 26.6 °F 46% 30.23 in 10.0 mi NNE 9.2 mph 16.1 mph N/A   Clear
12:55 PM 46.4 °F 41.5 °F 28.4 °F 50% 30.23 in 10.0 mi North 10.4 mph 16.1 mph N/A   Scattered Clouds
1:15 PM 44.6 °F 39.2 °F 30.2 °F 57% 30.22 in 10.0 mi North 10.4 mph 17.3 mph N/A   Scattered Clouds
1:35 PM 44.6 °F 38.8 °F 28.4 °F 53% 30.22 in 10.0 mi NNE 11.5 mph 17.3 mph N/A   Mostly Cloudy
1:55 PM 46.4 °F 41.1 °F 30.2 °F 53% 30.21 in 10.0 mi North 11.5 mph - N/A   Mostly Cloudy
2:15 PM 44.6 °F 39.2 °F 30.2 °F 57% 30.21 in 10.0 mi North 10.4 mph 21.9 mph N/A   Scattered Clouds
2:35 PM 46.4 °F 41.1 °F 30.2 °F 53% 30.21 in 10.0 mi North 11.5 mph 19.6 mph N/A   Mostly Cloudy
2:55 PM 46.4 °F 40.4 °F 30.2 °F 53% 30.21 in 10.0 mi NNE 13.8 mph 18.4 mph N/A   Scattered Clouds
3:15 PM 46.4 °F 41.9 °F 30.2 °F 53% 30.21 in 10.0 mi North 9.2 mph - N/A   Scattered Clouds
3:35 PM 44.6 °F 38.8 °F 30.2 °F 57% 30.21 in 10.0 mi North 11.5 mph - N/A   Mostly Cloudy
3:55 PM 44.6 °F 37.8 °F 30.2 °F 57% 30.21 in 10.0 mi North 15.0 mph 20.7 mph N/A   Overcast
4:15 PM 44.6 °F 38.4 °F 30.2 °F 57% 30.21 in 10.0 mi North 12.7 mph 19.6 mph N/A   Overcast
4:35 PM 44.6 °F 38.8 °F 32.0 °F 61% 30.21 in 10.0 mi North 11.5 mph - N/A   Overcast
4:55 PM 44.6 °F 38.4 °F 32.0 °F 61% 30.20 in 10.0 mi North 12.7 mph 19.6 mph N/A   Overcast
5:15 PM 44.6 °F 39.7 °F 30.2 °F 57% 30.21 in 10.0 mi North 9.2 mph 18.4 mph N/A   Overcast
5:35 PM 44.6 °F 38.8 °F 32.0 °F 61% 30.21 in 10.0 mi North 11.5 mph 23.0 mph N/A   Overcast
5:55 PM 44.6 °F 40.2 °F 32.0 °F 61% 30.21 in 10.0 mi North 8.1 mph 19.6 mph N/A   Overcast
6:15 PM 44.6 °F 38.8 °F 32.0 °F 61% 30.21 in 10.0 mi North 11.5 mph 24.2 mph N/A   Overcast
6:35 PM 44.6 °F 38.8 °F 30.2 °F 57% 30.21 in 10.0 mi North 11.5 mph 17.3 mph N/A   Overcast
6:55 PM 44.6 °F 37.8 °F 30.2 °F 57% 30.22 in 10.0 mi North 15.0 mph 23.0 mph N/A   Overcast
7:15 PM 44.6 °F 37.8 °F 30.2 °F 57% 30.22 in 10.0 mi North 15.0 mph 19.6 mph N/A   Overcast
7:35 PM 44.6 °F 38.4 °F 30.2 °F 57% 30.21 in 10.0 mi North 12.7 mph 17.3 mph N/A   Overcast
7:55 PM 46.4 °F 41.5 °F 30.2 °F 53% 30.20 in 10.0 mi NNE 10.4 mph 19.6 mph N/A   Overcast
8:15 PM 44.6 °F 40.7 °F 24.8 °F 46% 30.21 in 10.0 mi NNE 6.9 mph - N/A   Overcast
8:35 PM 44.6 °F 41.4 °F 23.0 °F 43% 30.21 in 10.0 mi NE 5.8 mph - N/A   Overcast
9:15 PM 42.8 °F 38.6 °F 21.2 °F 42% 30.21 in 10.0 mi NE 6.9 mph - N/A   Mostly Cloudy
9:55 PM 41.0 °F 38.0 °F 23.0 °F 49% 30.21 in 10.0 mi NE 4.6 mph - N/A   Scattered Clouds
10:15 PM 41.0 °F 39.0 °F 23.0 °F 49% 30.21 in 10.0 mi NE 3.5 mph - N/A   Mostly Cloudy
10:35 PM 42.8 °F 38.0 °F 26.6 °F 53% 30.21 in 10.0 mi NNE 8.1 mph - N/A   Mostly Cloudy
10:55 PM 44.6 °F 39.2 °F 28.4 °F 53% 30.20 in 10.0 mi North 10.4 mph 17.3 mph N/A   Mostly Cloudy
11:15 PM 44.6 °F 40.2 °F 28.4 °F 53% 30.20 in 10.0 mi NNE 8.1 mph 18.4 mph N/A   Mostly Cloudy
11:55 PM 42.8 °F 38.0 °F 30.2 °F 61% 30.22 in 10.0 mi NE 8.1 mph - N/A   Mostly Cloudy